[[{"header":{"parameterUnit":"m.s-1","parameterCategory":2,"la1":30.2991,"la2":30.254,"lo1":-89.0895,"lo2":-89.0444,"dx":0.0017,"dy":0.0017,"nx":28,"ny":28,"refTime":"2023-01-30T15:00:00:Z","depth":"0","parameterNumber":2,"parameterNumberName":"U-component_of_CURRENTS"},"data":[0,0,0,0,0,0,0,0,0,0,0,0,0,0,0,0,0,0,0,0,0,0,0,0,0,0,0,0,0,0,0,0,0,0,0,0,0,0,0,0,0,0,0,0,0,0,0,0,0,0,0,0,0,0,0,0,0,0,-0.0188,-0.0189,0,-0.027,-0.0271,-0.0272,-0.0303,-0.0302,-0.0302,-0.0302,-0.0377,-0.0379,-0.0381,0,0,0,0,0,0,0,0,0,0,0,0,0,-0.0062,-0.0064,-0.0188,-0.0189,-0.019,-0.027,-0.0271,-0.0272,-0.0303,-0.0302,-0.0302,-0.0302,-0.0376,-0.0379,-0.0382,0,0,0,0,0,0,0,0,0,0,0,0,0,-0.0128,-0.0065,-0.0188,-0.0215,-0.0218,-0.027,-0.0271,-0.0273,-0.0303,-0.0302,-0.0302,-0.0302,-0.0375,-0.0379,-0.0382,-0.0411,0,0,-0.0392,-0.0394,0,0,0,0,0,0,0,0,-0.0124,-0.0132,-0.021,-0.0213,-0.0217,-0.0276,-0.0254,-0.0319,-0.0303,-0.0271,-0.0302,-0.0301,-0.0343,-0.0349,-0.0365,-0.0414,-0.0418,-0.0393,-0.0395,-0.0396,-0.0397,0,0,0,0,0,0,0,-0.0119,-0.0129,-0.0221,-0.0211,-0.0215,-0.0224,-0.0233,-0.0267,-0.0308,-0.0273,-0.0276,-0.0285,-0.0345,-0.0362,-0.0367,-0.0419,-0.0392,-0.0395,-0.0398,-0.0399,-0.053,-0.0531,0,0,0,0,0,0,-0.011,-0.0125,-0.0218,-0.0223,-0.0168,-0.0227,-0.0237,-0.0257,-0.0308,-0.0315,-0.0285,-0.0286,-0.0356,-0.0363,-0.037,-0.042,-0.0396,-0.0399,-0.0401,-0.0528,-0.053,-0.0532,0,0,0,0,0,0,-0.0107,-0.0118,-0.0215,-0.0175,-0.0188,-0.0229,-0.0252,-0.0259,-0.0269,-0.0317,-0.0324,-0.0287,-0.0356,-0.0365,-0.0415,-0.0422,-0.0401,-0.0404,-0.0527,-0.0529,-0.0531,-0.0511,0,0,0,0,0,0,-0.0103,-0.0116,-0.0118,-0.0175,-0.019,-0.0239,-0.0253,-0.0261,-0.0276,-0.0277,-0.0321,-0.0328,-0.0357,-0.041,-0.0418,-0.0426,-0.0406,-0.0525,-0.0528,-0.053,-0.051,-0.0512,-0.0514,0,0,0,0,0,-0.0098,-0.0102,-0.0118,-0.0129,-0.0195,-0.0239,-0.0247,-0.0275,-0.0276,-0.0281,-0.0325,-0.0326,-0.0432,-0.0414,-0.0423,-0.0433,-0.0524,-0.0527,-0.053,-0.0509,-0.0512,-0.0514,0,0,0,0,0,0,-0.0046,-0.0107,-0.0126,-0.0148,-0.0188,-0.0244,-0.0247,-0.0268,-0.0307,-0.0307,-0.0347,-0.0359,-0.0405,-0.0427,-0.0405,-0.0482,-0.0477,-0.0482,-0.0458,-0.0461,-0.0463,-0.0443,-0.0409,0,0,0,0,0,-0.0037,-0.0056,-0.0117,-0.0132,-0.015,-0.0196,-0.0213,-0.0239,-0.0283,-0.0298,-0.0338,-0.0383,-0.0429,-0.0449,-0.0493,-0.0532,-0.0538,-0.0546,-0.0548,-0.055,-0.0543,-0.0572,-0.0575,-0.0543,-0.0542,-0.0542,0,0,-0.002,-0.0055,-0.0065,-0.0121,-0.0152,-0.0186,-0.0205,-0.0233,-0.0266,-0.0301,-0.0352,-0.0392,-0.0443,-0.0494,-0.0516,-0.051,-0.0563,-0.0554,-0.0555,-0.0546,-0.0575,-0.0578,-0.0581,-0.0545,-0.0544,-0.0544,0,0,0.0002,-0.0028,-0.0039,-0.0075,-0.0124,-0.0164,-0.0168,-0.0231,-0.0259,-0.0316,-0.0354,-0.0399,-0.0467,-0.051,-0.0538,-0.0578,-0.0575,-0.059,-0.0581,-0.061,-0.0612,-0.0613,-0.0616,-0.0618,-0.0589,-0.0589,-0.0589,0,0.0029,-0.001,-0.0046,-0.0071,-0.0098,-0.0152,-0.0175,-0.0219,-0.0293,-0.032,-0.0328,-0.0435,-0.0476,-0.0535,-0.0556,-0.058,-0.0586,-0.0561,-0.0609,-0.0611,-0.0613,-0.0615,-0.0618,-0.0588,-0.0588,-0.0588,-0.0588,0,0.0025,-0.0002,-0.001,-0.0067,-0.0093,-0.0126,-0.0191,-0.0232,-0.0271,-0.0317,-0.0381,-0.0443,-0.0498,-0.0524,-0.0553,-0.0596,-0.059,-0.0607,-0.0592,-0.0615,-0.0616,-0.0619,-0.0587,-0.0587,-0.0588,-0.0588,0,0,0.0055,-0.0,-0.0008,-0.0035,-0.0098,-0.013,-0.0179,-0.0248,-0.0282,-0.0346,-0.0381,-0.0469,-0.0486,-0.052,-0.0558,-0.0588,-0.0612,-0.0599,-0.0601,-0.0583,-0.0653,-0.0589,-0.0587,-0.0632,-0.0633,-0.0634,-0.0642,0,0.0054,0.0018,-0.0013,-0.0059,-0.0089,-0.0145,-0.0186,-0.0248,-0.0301,-0.0352,-0.0407,-0.0457,-0.0489,-0.0509,-0.0544,-0.0596,-0.0621,-0.0606,-0.065,-0.0651,-0.0577,-0.0589,-0.0554,-0.0553,-0.0645,-0.0646,-0.0646,0,0.0042,0.0015,-0.001,-0.0071,-0.0087,-0.0117,-0.019,-0.0235,-0.0308,-0.034,-0.0384,-0.0425,-0.0478,-0.0499,-0.0576,-0.0562,-0.0604,-0.064,-0.0642,-0.0589,-0.0593,-0.0551,-0.0555,-0.0472,-0.0651,-0.0651,-0.065,0,0.0063,0.0004,-0.0013,-0.0035,-0.0099,-0.012,-0.0162,-0.0229,-0.0258,-0.0323,-0.0335,-0.0404,-0.0428,-0.0492,-0.0553,-0.057,-0.062,-0.0656,-0.0638,-0.0633,-0.0614,-0.0605,-0.0526,-0.0711,-0.0711,-0.0711,-0.0711,0,0.006,0.0034,-0.0007,-0.002,-0.0055,-0.0101,-0.0131,-0.0185,-0.0226,-0.0252,-0.0316,-0.034,-0.0429,-0.0468,-0.0533,-0.057,-0.0602,-0.0627,-0.0632,-0.0605,-0.0596,-0.0532,-0.0546,-0.0711,-0.0711,-0.0711,-0.0711,0,0.0085,0.006,0.0032,-0.0021,-0.0038,-0.006,-0.0098,-0.012,-0.0166,-0.0193,-0.0205,-0.0283,-0.0332,-0.0397,-0.0491,-0.053,-0.0585,-0.0594,-0.0534,-0.0531,-0.0435,-0.0451,-0.0616,-0.0585,-0.058,-0.0579,-0.0577,0,0.0087,0.0085,0.0052,0.0042,0.0022,-0.001,-0.0024,-0.0078,-0.0091,-0.0164,-0.0168,-0.0222,-0.0267,-0.0343,-0.0412,-0.0476,-0.0526,-0.0478,-0.0513,-0.0404,-0.0429,-0.0605,-0.0579,-0.0486,-0.0484,-0.0482,-0.0481,0,0.0093,0.0102,0.0093,0.009,0.0077,0.0055,0.0029,0.0028,-0.0034,-0.0062,-0.0113,-0.0158,-0.0229,-0.0286,-0.0341,-0.0384,-0.0469,-0.0446,-0.0369,-0.0367,-0.0525,-0.0503,-0.0483,-0.0467,-0.0468,-0.0469,-0.047,-0.0471,0.0101,0.0114,0.0127,0.0128,0.0115,0.0108,0.0106,0.0078,0.0057,0.0007,-0.0051,-0.0097,-0.0182,-0.0262,-0.027,-0.024,-0.0391,-0.0245,-0.0281,-0.0473,-0.0428,-0.0348,-0.0312,-0.0313,-0.0313,-0.0314,-0.0314,0,0.0074,0.0122,0.0149,0.0155,0.0161,0.0144,0.0132,0.0136,0.0112,0.0075,0.0025,-0.0046,-0.0086,-0.0125,-0.0162,-0.0101,-0.0198,-0.0051,-0.026,-0.024,-0.0165,-0.013,-0.001,-0.001,-0.001,-0.001,-0.001,-0.001,0.0064,0.01,0.0147,0.0187,0.0196,0.0205,0.0199,0.0193,0.0183,0.0153,0.0114,0.0064,-0.0049,-0.0099,-0.0018,0.0015,-0.0034,-0.0102,-0.0088,0.0046,0.0026,0.0007,0.0043,0.0197,0.0197,-0.019,-0.0192,-0.0194]},{"header":{"parameterUnit":"m.s-1","parameterCategory":2,"la1":30.2991,"la2":30.254,"lo1":-89.0895,"lo2":-89.0444,"dx":0.0017,"dy":0.0017,"nx":28,"ny":28,"refTime":"2023-01-30T15:00:00:Z","depth":"0","parameterNumber":3,"parameterNumberName":"V-component_of_CURRENTS"},"data":[0,0,0,0,0,0,0,0,0,0,0,0,0,0,0,0,0,0,0,0,0,0,0,0,0,0,0,0,0,0,0,0,0,0,0,0,0,0,0,0,0,0,0,0,0,0,0,0,0,0,0,0,0,0,0,0,0,0,-0.07,-0.07,0,-0.0673,-0.0673,-0.0673,-0.0623,-0.0622,-0.0621,-0.062,-0.0472,-0.0469,-0.0466,0,0,0,0,0,0,0,0,0,0,0,0,0,-0.0669,-0.067,-0.07,-0.07,-0.07,-0.0673,-0.0673,-0.0673,-0.0623,-0.0622,-0.0621,-0.062,-0.0473,-0.047,-0.0466,0,0,0,0,0,0,0,0,0,0,0,0,0,-0.0666,-0.067,-0.07,-0.0672,-0.0669,-0.0673,-0.0673,-0.0673,-0.0624,-0.0622,-0.0621,-0.0619,-0.0474,-0.047,-0.0466,-0.0467,0,0,-0.0452,-0.045,0,0,0,0,0,0,0,0,-0.0667,-0.0668,-0.0676,-0.0674,-0.067,-0.065,-0.0608,-0.0598,-0.0624,-0.0641,-0.062,-0.0619,-0.0521,-0.0513,-0.0513,-0.046,-0.0453,-0.0451,-0.0448,-0.0446,-0.0445,0,0,0,0,0,0,0,-0.0667,-0.0668,-0.069,-0.0676,-0.0673,-0.0646,-0.0645,-0.0606,-0.0588,-0.0639,-0.0636,-0.0633,-0.0519,-0.0518,-0.0509,-0.0451,-0.0451,-0.0447,-0.0444,-0.0443,-0.0352,-0.0352,0,0,0,0,0,0,-0.0674,-0.0669,-0.0691,-0.0689,-0.0665,-0.0648,-0.0646,-0.0658,-0.059,-0.058,-0.0634,-0.0631,-0.0526,-0.0514,-0.0503,-0.0481,-0.0447,-0.0442,-0.044,-0.0351,-0.0352,-0.0352,0,0,0,0,0,0,-0.0674,-0.0677,-0.0692,-0.0677,-0.0677,-0.0651,-0.0664,-0.0658,-0.0647,-0.0588,-0.0574,-0.0627,-0.0525,-0.051,-0.0475,-0.0475,-0.044,-0.0436,-0.0351,-0.0352,-0.0352,-0.0448,0,0,0,0,0,0,-0.0673,-0.0677,-0.0682,-0.0678,-0.0678,-0.0693,-0.0665,-0.0659,-0.0648,-0.0643,-0.0578,-0.0563,-0.0522,-0.0483,-0.0471,-0.0468,-0.0433,-0.0351,-0.0351,-0.0352,-0.0444,-0.0451,-0.0457,0,0,0,0,0,-0.0672,-0.0685,-0.0683,-0.0685,-0.0689,-0.0693,-0.0691,-0.0667,-0.0649,-0.065,-0.0613,-0.0565,-0.0477,-0.048,-0.0466,-0.0462,-0.035,-0.0351,-0.0352,-0.0441,-0.045,-0.0457,0,0,0,0,0,0,-0.0676,-0.0681,-0.0679,-0.0693,-0.0693,-0.0685,-0.0682,-0.0669,-0.0644,-0.0634,-0.0577,-0.0561,-0.053,-0.0485,-0.0489,-0.0436,-0.0402,-0.04,-0.0475,-0.0482,-0.0489,-0.0506,-0.0429,0,0,0,0,0,-0.0682,-0.0689,-0.0693,-0.0704,-0.0708,-0.0697,-0.0693,-0.0682,-0.0663,-0.065,-0.0608,-0.056,-0.0525,-0.0496,-0.0458,-0.0432,-0.0412,-0.0416,-0.0423,-0.0429,-0.0433,-0.042,-0.0427,-0.0355,-0.0355,-0.0355,0,0,-0.0685,-0.0689,-0.0693,-0.0704,-0.0703,-0.0713,-0.0691,-0.0692,-0.0694,-0.0636,-0.0619,-0.0584,-0.0526,-0.0502,-0.0482,-0.0461,-0.0442,-0.043,-0.0436,-0.0436,-0.0422,-0.0429,-0.0435,-0.0355,-0.0355,-0.0355,0,0,-0.0698,-0.0705,-0.0715,-0.0719,-0.0722,-0.0721,-0.0723,-0.0718,-0.0708,-0.0696,-0.0657,-0.0634,-0.0568,-0.0541,-0.0515,-0.0534,-0.0484,-0.0506,-0.0546,-0.0535,-0.0541,-0.0546,-0.0549,-0.0554,-0.0503,-0.0503,-0.0503,0,-0.0701,-0.072,-0.0719,-0.0731,-0.0733,-0.0727,-0.074,-0.0738,-0.072,-0.0715,-0.0695,-0.0634,-0.0591,-0.0568,-0.0578,-0.055,-0.0537,-0.0525,-0.0546,-0.0551,-0.0554,-0.0556,-0.056,-0.0508,-0.0507,-0.0507,-0.0506,0,-0.0724,-0.0736,-0.0745,-0.076,-0.0763,-0.0775,-0.0775,-0.0779,-0.0766,-0.0757,-0.0737,-0.0697,-0.0657,-0.0642,-0.0615,-0.0615,-0.0598,-0.0566,-0.0533,-0.0568,-0.0566,-0.0569,-0.0515,-0.0513,-0.0512,-0.051,0,0,-0.0747,-0.0758,-0.0763,-0.0769,-0.0779,-0.0787,-0.0799,-0.0809,-0.0814,-0.0796,-0.0794,-0.0759,-0.0739,-0.0709,-0.0674,-0.0668,-0.0697,-0.0632,-0.0629,-0.0649,-0.0683,-0.0719,-0.0724,-0.0668,-0.0668,-0.0669,-0.068,0,-0.0769,-0.0794,-0.0791,-0.0813,-0.083,-0.0826,-0.084,-0.0843,-0.0835,-0.0833,-0.0806,-0.0783,-0.0762,-0.0743,-0.074,-0.0696,-0.0704,-0.0698,-0.0634,-0.0632,-0.067,-0.0729,-0.0729,-0.0742,-0.0682,-0.0682,-0.0682,0,-0.0794,-0.0812,-0.0834,-0.0846,-0.0852,-0.0861,-0.0878,-0.0886,-0.0885,-0.0875,-0.086,-0.083,-0.0817,-0.0791,-0.0763,-0.0758,-0.0737,-0.0712,-0.0711,-0.0711,-0.0672,-0.0691,-0.0748,-0.0508,-0.0685,-0.0685,-0.0685,0,-0.081,-0.0837,-0.0854,-0.0859,-0.0877,-0.0884,-0.0893,-0.09,-0.0903,-0.0896,-0.0892,-0.0869,-0.0846,-0.0824,-0.0785,-0.0769,-0.076,-0.0721,-0.0742,-0.0744,-0.0715,-0.0714,-0.0543,-0.0721,-0.0721,-0.0721,-0.0721,0,-0.0827,-0.084,-0.0865,-0.0872,-0.0897,-0.0903,-0.0917,-0.0922,-0.0928,-0.0932,-0.0912,-0.0908,-0.0852,-0.0836,-0.0806,-0.0795,-0.0777,-0.0771,-0.0756,-0.075,-0.0753,-0.0517,-0.0331,-0.0721,-0.0721,-0.0721,-0.0721,0,-0.0819,-0.0839,-0.0857,-0.0887,-0.0897,-0.0909,-0.0922,-0.0932,-0.0945,-0.0948,-0.0945,-0.0929,-0.0915,-0.0881,-0.0837,-0.082,-0.0671,-0.0803,-0.0815,-0.0803,-0.0606,-0.0426,-0.0238,-0.0129,-0.0829,-0.083,-0.0831,0,-0.0807,-0.0821,-0.0856,-0.0868,-0.0874,-0.0897,-0.091,-0.093,-0.0942,-0.0963,-0.0968,-0.096,-0.0959,-0.0935,-0.0923,-0.0908,-0.0677,-0.0867,-0.0842,-0.0612,-0.0399,-0.0281,-0.0193,-0.0841,-0.0842,-0.0842,-0.0843,0,-0.0784,-0.0798,-0.0814,-0.085,-0.0864,-0.0876,-0.0902,-0.092,-0.0949,-0.0972,-0.0999,-0.1004,-0.1016,-0.1007,-0.0994,-0.0965,-0.0648,-0.0884,-0.0624,-0.0386,-0.0262,-0.0146,-0.0813,-0.085,-0.0849,-0.0848,-0.0848,-0.0848,-0.0757,-0.0763,-0.0794,-0.0826,-0.0843,-0.0857,-0.0866,-0.09,-0.0932,-0.0971,-0.1004,-0.1035,-0.1016,-0.1023,-0.0961,-0.0765,-0.069,-0.0635,-0.0439,-0.0347,-0.0221,-0.0926,-0.0956,-0.0956,-0.0956,-0.0956,-0.0956,0,-0.0736,-0.0751,-0.077,-0.0804,-0.0823,-0.0833,-0.0864,-0.0878,-0.0917,-0.0968,-0.1006,-0.1045,-0.0945,-0.085,-0.0664,-0.0376,-0.0262,-0.0133,0.0086,0.015,-0.0471,-0.0452,-0.0398,-0.0398,-0.0398,-0.0398,-0.0399,-0.0399,-0.0726,-0.0738,-0.0759,-0.0786,-0.0807,-0.0813,-0.0826,-0.0843,-0.0887,-0.0956,-0.1016,-0.1059,-0.0873,-0.0347,0.0083,0.02,0.0593,0.064,0.083,0.0479,0.0448,0.0419,0.0478,0.0726,0.0728,0.1358,0.1365,0.1371]}],[{"header":{"parameterUnit":"m.s-1","parameterCategory":2,"la1":30.2991,"la2":30.254,"lo1":-89.0895,"lo2":-89.0444,"dx":0.0017,"dy":0.0017,"nx":28,"ny":28,"refTime":"2023-01-30T15:00:00:Z","depth":"2","parameterNumber":2,"parameterNumberName":"U-component_of_CURRENTS"},"data":[0,0,0,0,0,0,0,0,0,0,0,0,0,0,0,0,0,0,0,0,0,0,0,0,0,0,0,0,0,0,0,0,0,0,0,0,0,0,0,0,0,0,0,0,0,0,0,0,0,0,0,0,0,0,0,0,0,0,-0.316,-0.3161,0,-0.3193,-0.3193,-0.3193,-0.3174,-0.3173,-0.3172,-0.3172,-0.3051,-0.3048,-0.3046,0,0,0,0,0,0,0,0,0,0,0,0,0,-0.3019,-0.3022,-0.316,-0.3161,-0.3161,-0.3193,-0.3193,-0.3193,-0.3174,-0.3173,-0.3172,-0.3171,-0.3052,-0.3049,-0.3046,0,0,0,0,0,0,0,0,0,0,0,0,0,-0.3067,-0.3023,-0.316,-0.3157,-0.3158,-0.3193,-0.3193,-0.3193,-0.3174,-0.3173,-0.3172,-0.3171,-0.3053,-0.3049,-0.3045,-0.3043,0,0,-0.3034,-0.3032,0,0,0,0,0,0,0,0,-0.3064,-0.3072,-0.3157,-0.3158,-0.3158,-0.318,-0.3099,-0.3136,-0.3174,-0.3165,-0.3172,-0.317,-0.3082,-0.3076,-0.3083,-0.3037,-0.3032,-0.3033,-0.3031,-0.3029,-0.3028,0,0,0,0,0,0,0,-0.3061,-0.307,-0.317,-0.3158,-0.3158,-0.3134,-0.314,-0.3107,-0.3124,-0.3166,-0.3165,-0.3173,-0.3081,-0.3087,-0.308,-0.303,-0.3033,-0.303,-0.3028,-0.3026,-0.2864,-0.2862,0,0,0,0,0,0,-0.3067,-0.3068,-0.3169,-0.3172,-0.311,-0.3138,-0.3144,-0.3172,-0.3128,-0.3122,-0.3174,-0.3172,-0.3094,-0.3084,-0.3075,-0.3006,-0.3029,-0.3026,-0.3024,-0.2866,-0.2864,-0.2862,0,0,0,0,0,0,-0.3065,-0.3077,-0.3168,-0.312,-0.3131,-0.3142,-0.3173,-0.3173,-0.3167,-0.3137,-0.3127,-0.3166,-0.3093,-0.3081,-0.3023,-0.3003,-0.3024,-0.3021,-0.2869,-0.2866,-0.2863,-0.2907,0,0,0,0,0,0,-0.3061,-0.3076,-0.3085,-0.3122,-0.3134,-0.3175,-0.3174,-0.3175,-0.3176,-0.3173,-0.3127,-0.3116,-0.3091,-0.3029,-0.3019,-0.2998,-0.3018,-0.2871,-0.2867,-0.2864,-0.2908,-0.2906,-0.2904,0,0,0,0,0,-0.3056,-0.3076,-0.3086,-0.3097,-0.3151,-0.3176,-0.3178,-0.318,-0.3176,-0.317,-0.3132,-0.3116,-0.2997,-0.3025,-0.3014,-0.2991,-0.2873,-0.2868,-0.2864,-0.2909,-0.2906,-0.2904,0,0,0,0,0,0,-0.3007,-0.3078,-0.3088,-0.3126,-0.3142,-0.3173,-0.3169,-0.3177,-0.3148,-0.3135,-0.3103,-0.3089,-0.3032,-0.2996,-0.3028,-0.2927,-0.2927,-0.2921,-0.2965,-0.2962,-0.296,-0.2929,-0.3014,0,0,0,0,0,-0.3007,-0.3044,-0.3091,-0.3113,-0.3125,-0.3145,-0.3152,-0.3158,-0.3148,-0.3136,-0.3107,-0.3056,-0.3008,-0.2974,-0.2932,-0.2882,-0.2829,-0.2852,-0.285,-0.2849,-0.2812,-0.2742,-0.2731,-0.2847,-0.2847,-0.2847,0,0,-0.2986,-0.3034,-0.3048,-0.3104,-0.3117,-0.3118,-0.3145,-0.3155,-0.3133,-0.3124,-0.3073,-0.3055,-0.2994,-0.2941,-0.2909,-0.2906,-0.2786,-0.2843,-0.2843,-0.2805,-0.2736,-0.2725,-0.2716,-0.2844,-0.2844,-0.2845,0,0,-0.2965,-0.3013,-0.303,-0.305,-0.3083,-0.3094,-0.3095,-0.3121,-0.3108,-0.3078,-0.3055,-0.3012,-0.2956,-0.2903,-0.2868,-0.2819,-0.2786,-0.2815,-0.2775,-0.271,-0.27,-0.2691,-0.2613,-0.2597,-0.2807,-0.2807,-0.2807,0,-0.2926,-0.2968,-0.3029,-0.3045,-0.3043,-0.3078,-0.3065,-0.3062,-0.3059,-0.3031,-0.3052,-0.2955,-0.2924,-0.2829,-0.2822,-0.2813,-0.2775,-0.2804,-0.271,-0.27,-0.269,-0.2612,-0.2593,-0.2808,-0.2808,-0.2808,-0.2808,0,-0.2918,-0.2939,-0.2947,-0.2977,-0.2983,-0.2981,-0.2993,-0.298,-0.2979,-0.2972,-0.2906,-0.2881,-0.2816,-0.2811,-0.2806,-0.2715,-0.2711,-0.2731,-0.2728,-0.2681,-0.2601,-0.2581,-0.281,-0.281,-0.2809,-0.2809,0,0,-0.2835,-0.2924,-0.2914,-0.291,-0.2946,-0.2939,-0.2909,-0.2879,-0.2831,-0.2839,-0.2769,-0.2726,-0.2738,-0.2695,-0.2693,-0.264,-0.256,-0.2662,-0.2658,-0.2603,-0.2409,-0.2315,-0.2284,-0.2588,-0.2584,-0.2582,-0.2385,0,-0.2785,-0.2804,-0.2857,-0.2817,-0.2813,-0.2837,-0.2799,-0.2777,-0.2761,-0.2707,-0.2685,-0.2634,-0.2686,-0.267,-0.2627,-0.2578,-0.2507,-0.2609,-0.2443,-0.2436,-0.2375,-0.2257,-0.2162,-0.197,-0.2365,-0.2361,-0.2359,0,-0.2726,-0.2755,-0.2734,-0.2736,-0.2731,-0.2709,-0.2642,-0.262,-0.2571,-0.2568,-0.2536,-0.2536,-0.2465,-0.2527,-0.2399,-0.2474,-0.2428,-0.2393,-0.2386,-0.2258,-0.2303,-0.2075,-0.1918,-0.2325,-0.2327,-0.233,-0.2332,0,-0.2611,-0.2639,-0.2617,-0.2621,-0.2642,-0.2611,-0.2603,-0.2565,-0.2524,-0.2483,-0.2452,-0.2399,-0.2353,-0.2309,-0.2272,-0.2334,-0.212,-0.2193,-0.2047,-0.2041,-0.1895,-0.1881,-0.2061,-0.2061,-0.2062,-0.2062,-0.2063,0,-0.2523,-0.249,-0.2564,-0.2547,-0.2483,-0.2532,-0.2447,-0.244,-0.241,-0.234,-0.2379,-0.2298,-0.2301,-0.2207,-0.2197,-0.2037,-0.2055,-0.1979,-0.196,-0.1907,-0.1896,-0.2161,-0.2175,-0.2055,-0.2056,-0.2058,-0.2059,0,-0.2384,-0.2441,-0.2415,-0.2443,-0.2433,-0.2389,-0.2372,-0.2316,-0.2321,-0.223,-0.2223,-0.218,-0.2069,-0.2041,-0.1926,-0.1897,-0.179,-0.173,-0.166,-0.1635,-0.1774,-0.1793,-0.1524,-0.1518,-0.1513,-0.151,-0.1506,0,-0.2309,-0.2292,-0.232,-0.2301,-0.231,-0.227,-0.2232,-0.2254,-0.2214,-0.2141,-0.2081,-0.1969,-0.1864,-0.1659,-0.1606,-0.1502,-0.1604,-0.1325,-0.1409,-0.1697,-0.1707,-0.1734,-0.1758,-0.1239,-0.1234,-0.123,-0.1226,0,-0.2153,-0.2179,-0.2174,-0.216,-0.2129,-0.2104,-0.2073,-0.2032,-0.2042,-0.1987,-0.1877,-0.1788,-0.1593,-0.1429,-0.1295,-0.1229,-0.1347,-0.1232,-0.1499,-0.1404,-0.1415,-0.1432,-0.1467,-0.1189,-0.1192,-0.1195,-0.1197,-0.1199,-0.2019,-0.1991,-0.2008,-0.1978,-0.1966,-0.1946,-0.1893,-0.1887,-0.1826,-0.1732,-0.1685,-0.1552,-0.141,-0.1192,-0.1052,-0.0965,-0.1065,-0.102,-0.1038,-0.106,-0.1075,-0.1079,-0.0791,-0.0792,-0.0794,-0.0795,-0.0796,0,-0.1842,-0.1838,-0.1814,-0.1797,-0.1765,-0.1816,-0.1775,-0.172,-0.164,-0.1576,-0.1475,-0.1251,-0.1097,-0.1002,-0.0829,-0.0715,-0.076,-0.0649,-0.0749,-0.0783,-0.0815,-0.0826,-0.0471,-0.047,-0.047,-0.0469,0,0,-0.1743,-0.1678,-0.1686,-0.1598,-0.16,-0.1547,-0.1526,-0.1455,-0.1407,-0.1259,-0.1206,-0.119,-0.1089,-0.0892,-0.0713,-0.0595,-0.0706,-0.0542,-0.0801,-0.0963,-0.0996,-0.1011,-0.1062,0,0,0,0,0]},{"header":{"parameterUnit":"m.s-1","parameterCategory":2,"la1":30.2991,"la2":30.254,"lo1":-89.0895,"lo2":-89.0444,"dx":0.0017,"dy":0.0017,"nx":28,"ny":28,"refTime":"2023-01-30T15:00:00:Z","depth":"2","parameterNumber":3,"parameterNumberName":"V-component_of_CURRENTS"},"data":[0,0,0,0,0,0,0,0,0,0,0,0,0,0,0,0,0,0,0,0,0,0,0,0,0,0,0,0,0,0,0,0,0,0,0,0,0,0,0,0,0,0,0,0,0,0,0,0,0,0,0,0,0,0,0,0,0,0,0.0801,0.0803,0,0.099,0.0992,0.0995,0.1045,0.1043,0.1042,0.1041,0.1163,0.1167,0.1172,0,0,0,0,0,0,0,0,0,0,0,0,0,0.0666,0.0667,0.0801,0.0803,0.0806,0.099,0.0993,0.0995,0.1045,0.1043,0.1042,0.104,0.1162,0.1167,0.1172,0,0,0,0,0,0,0,0,0,0,0,0,0,0.0777,0.0667,0.0801,0.0852,0.0858,0.0989,0.0993,0.0996,0.1045,0.1043,0.1041,0.104,0.116,0.1166,0.1173,0.125,0,0,0.1193,0.1196,0,0,0,0,0,0,0,0,0.077,0.0782,0.0842,0.0849,0.0856,0.0991,0.099,0.1077,0.1046,0.0975,0.1041,0.1039,0.11,0.1112,0.1153,0.1256,0.1261,0.1194,0.1198,0.12,0.1202,0,0,0,0,0,0,0,0.0762,0.0775,0.0877,0.0845,0.0853,0.0928,0.094,0.1008,0.1045,0.0981,0.0985,0.1005,0.1103,0.1147,0.1156,0.1263,0.1193,0.1199,0.1203,0.1206,0.1353,0.1353,0,0,0,0,0,0,0.073,0.0767,0.0871,0.0882,0.0807,0.0931,0.0945,0.095,0.1046,0.1059,0.1007,0.1007,0.1137,0.1149,0.1161,0.1173,0.12,0.1206,0.121,0.1353,0.1353,0.1353,0,0,0,0,0,0,0.0726,0.0737,0.0863,0.0829,0.085,0.0934,0.0941,0.0955,0.0968,0.1066,0.1077,0.1001,0.1136,0.1151,0.1199,0.1181,0.1209,0.1215,0.1353,0.1353,0.1353,0.1252,0,0,0,0,0,0,0.0721,0.0734,0.0725,0.0826,0.0851,0.0909,0.0943,0.096,0.0985,0.0987,0.1066,0.1077,0.1136,0.1188,0.1205,0.1191,0.1221,0.1353,0.1353,0.1353,0.1256,0.1249,0.1243,0,0,0,0,0,0.0716,0.0701,0.0723,0.0736,0.0835,0.0908,0.0927,0.0983,0.0986,0.0988,0.1044,0.1073,0.1199,0.1194,0.1214,0.1201,0.1353,0.1353,0.1353,0.1258,0.125,0.1243,0,0,0,0,0,0,0.0641,0.0709,0.0733,0.0741,0.0806,0.0915,0.0925,0.0964,0.1016,0.1004,0.1086,0.1103,0.1135,0.1187,0.1179,0.1243,0.1277,0.128,0.1198,0.1191,0.1185,0.1143,0.1226,0,0,0,0,0,0.0621,0.0621,0.0709,0.0714,0.0737,0.0826,0.086,0.0897,0.0961,0.0981,0.1036,0.1096,0.1161,0.1185,0.1247,0.129,0.1325,0.1291,0.1285,0.1279,0.1259,0.1346,0.1345,0.1353,0.1353,0.1353,0,0,0.0595,0.0632,0.0633,0.0698,0.075,0.0774,0.084,0.0873,0.089,0.0987,0.1007,0.1075,0.1167,0.1212,0.123,0.1245,0.1284,0.1279,0.1273,0.1256,0.1346,0.1345,0.1344,0.1353,0.1353,0.1353,0,0,0.0542,0.0571,0.0553,0.0596,0.0659,0.072,0.0715,0.0801,0.0829,0.0876,0.0947,0.1008,0.109,0.1166,0.1213,0.1213,0.1248,0.1215,0.1151,0.1235,0.1235,0.1235,0.1223,0.1224,0.1212,0.1211,0.1211,0,0.0508,0.05,0.0563,0.056,0.0588,0.0679,0.0675,0.0729,0.0816,0.0845,0.0854,0.1002,0.1075,0.1158,0.1148,0.1198,0.1212,0.117,0.1225,0.1227,0.1229,0.1218,0.1219,0.1206,0.1207,0.1207,0.1208,0,0.0447,0.0443,0.0435,0.0459,0.0497,0.0509,0.059,0.0617,0.066,0.0726,0.0797,0.0912,0.0996,0.1033,0.1087,0.1139,0.1128,0.1207,0.1238,0.1222,0.121,0.1214,0.1199,0.1201,0.1203,0.1204,0,0,0.0369,0.0388,0.0382,0.0381,0.0442,0.0471,0.0491,0.056,0.0577,0.0656,0.0694,0.0813,0.0868,0.0925,0.1014,0.1084,0.1101,0.1125,0.1131,0.1096,0.1201,0.1148,0.1146,0.1185,0.1187,0.1188,0.1166,0,0.0305,0.0269,0.0305,0.0284,0.028,0.0362,0.0383,0.0452,0.052,0.0576,0.0702,0.0767,0.0832,0.0867,0.0945,0.1077,0.1113,0.1094,0.1235,0.1237,0.1183,0.1152,0.119,0.1171,0.117,0.117,0.1171,0,0.0229,0.0222,0.0179,0.0207,0.0212,0.0215,0.0274,0.0305,0.0412,0.0462,0.0546,0.0642,0.0743,0.0813,0.0979,0.0954,0.1042,0.114,0.1144,0.1133,0.1193,0.1202,0.1178,0.1177,0.1177,0.1176,0.1176,0,0.0141,0.0135,0.0098,0.0104,0.0148,0.0145,0.0174,0.0261,0.0299,0.0383,0.0421,0.055,0.062,0.0761,0.0913,0.0949,0.1082,0.1182,0.1204,0.1198,0.1278,0.1277,0.1287,0.1287,0.1288,0.1288,0.1288,0,0.006,0.0036,0.0049,0.0028,0.0006,0.0058,0.0056,0.0106,0.0185,0.0238,0.0345,0.0415,0.0615,0.0722,0.0863,0.0998,0.1038,0.116,0.12,0.1235,0.1231,0.1296,0.1298,0.1287,0.1287,0.1287,0.1287,0,-0.0024,-0.0023,-0.0056,-0.0043,-0.0042,-0.006,-0.002,-0.0002,0.0062,0.0133,0.0153,0.0306,0.0415,0.0571,0.079,0.0925,0.1076,0.1114,0.1073,0.1109,0.1139,0.1136,0.1149,0.1147,0.1145,0.1144,0.1143,0,-0.0064,-0.0102,-0.012,-0.014,-0.014,-0.0151,-0.0144,-0.0078,-0.0035,0.0087,0.0133,0.0222,0.0303,0.0521,0.075,0.0915,0.0972,0.1071,0.118,0.1092,0.1131,0.113,0.1128,0.1224,0.1224,0.1223,0.1223,0,-0.0131,-0.015,-0.0174,-0.0221,-0.0237,-0.0229,-0.0206,-0.018,-0.0077,-0.0029,0.0073,0.0126,0.031,0.0534,0.0715,0.0844,0.1045,0.1069,0.1036,0.124,0.1159,0.1198,0.1196,0.1221,0.1221,0.1221,0.1221,0.1221,-0.0168,-0.0209,-0.0253,-0.0288,-0.0302,-0.0278,-0.0263,-0.0216,-0.0164,-0.0079,-0.0007,0.0135,0.0355,0.0652,0.0757,0.0924,0.0987,0.1131,0.1135,0.1139,0.1138,0.1059,0.1095,0.1095,0.1094,0.1094,0.1094,0,-0.0199,-0.0253,-0.0306,-0.0331,-0.0336,-0.0332,-0.0275,-0.0253,-0.0198,-0.0128,-0.0091,0.0198,0.0441,0.0651,0.0948,0.107,0.1076,0.1058,0.1121,0.1126,0.113,0.113,0.1084,0.1083,0.1082,0.1081,0,0,-0.0217,-0.0286,-0.0321,-0.0345,-0.0357,-0.0334,-0.0298,-0.0298,-0.0228,-0.0184,-0.0014,0.0122,0.0521,0.0714,0.085,0.0993,0.0977,0.0952,0.097,0.1028,0.1027,0.121,0.122,0,0,0,0,0]}],[{"header":{"parameterUnit":"m.s-1","parameterCategory":2,"la1":30.2991,"la2":30.254,"lo1":-89.0895,"lo2":-89.0444,"dx":0.0017,"dy":0.0017,"nx":28,"ny":28,"refTime":"2023-01-30T15:00:00:Z","depth":"4","parameterNumber":2,"parameterNumberName":"U-component_of_CURRENTS"},"data":[0,0,0,0,0,0,0,0,0,0,0,0,0,0,0,0,0,0,0,0,0,0,0,0,0,0,0,0,0,0,0,0,0,0,0,0,0,0,0,0,0,0,0,0,0,0,0,0,0,0,0,0,0,0,0,0,0,0,-0.1117,-0.1117,0,-0.1155,-0.1155,-0.1155,-0.122,-0.1221,-0.1223,-0.1224,-0.1325,-0.1326,-0.1327,0,0,0,0,0,0,0,0,0,0,0,0,0,-0.0995,-0.0997,-0.1117,-0.1117,-0.1118,-0.1155,-0.1155,-0.1155,-0.122,-0.1221,-0.1223,-0.1225,-0.1324,-0.1326,-0.1328,0,0,0,0,0,0,0,0,0,0,0,0,0,-0.1039,-0.0998,-0.1116,-0.1157,-0.1161,-0.1155,-0.1155,-0.1155,-0.1219,-0.1221,-0.1224,-0.1226,-0.1324,-0.1326,-0.1328,-0.1296,0,0,-0.1334,-0.1335,0,0,0,0,0,0,0,0,-0.1037,-0.1043,-0.115,-0.1154,-0.1159,-0.1187,-0.1149,-0.1206,-0.1219,-0.1194,-0.1224,-0.1227,-0.1285,-0.129,-0.1287,-0.13,-0.1305,-0.1334,-0.1335,-0.1336,-0.1337,0,0,0,0,0,0,0,-0.1034,-0.1041,-0.1129,-0.1151,-0.1156,-0.1137,-0.1146,-0.1159,-0.1226,-0.1196,-0.1202,-0.121,-0.1288,-0.1285,-0.1291,-0.1306,-0.1334,-0.1336,-0.1337,-0.1338,-0.1466,-0.1468,0,0,0,0,0,0,-0.1038,-0.1039,-0.1128,-0.113,-0.1105,-0.1138,-0.1148,-0.1174,-0.1224,-0.1234,-0.1208,-0.1213,-0.1281,-0.1288,-0.1295,-0.139,-0.1336,-0.1338,-0.1339,-0.1463,-0.1466,-0.1468,0,0,0,0,0,0,-0.1036,-0.1046,-0.1126,-0.1086,-0.1096,-0.1139,-0.1166,-0.1173,-0.121,-0.1233,-0.1244,-0.1243,-0.1283,-0.1292,-0.136,-0.139,-0.1339,-0.1341,-0.1461,-0.1464,-0.1467,-0.1498,0,0,0,0,0,0,-0.1032,-0.1045,-0.1069,-0.1088,-0.1099,-0.1153,-0.1164,-0.1172,-0.1211,-0.1219,-0.1266,-0.1275,-0.1285,-0.1357,-0.1362,-0.1392,-0.1342,-0.1458,-0.1462,-0.1466,-0.1495,-0.1502,-0.1509,0,0,0,0,0,-0.1028,-0.104,-0.107,-0.1081,-0.1129,-0.1154,-0.1158,-0.1192,-0.1211,-0.1233,-0.128,-0.1276,-0.1387,-0.136,-0.1365,-0.1397,-0.1456,-0.1461,-0.1466,-0.1491,-0.1501,-0.1509,0,0,0,0,0,0,-0.1003,-0.1048,-0.1082,-0.1112,-0.1151,-0.1167,-0.1177,-0.1207,-0.1255,-0.1269,-0.1298,-0.1311,-0.1379,-0.1389,-0.1358,-0.145,-0.1422,-0.1428,-0.144,-0.1449,-0.1456,-0.1446,-0.1344,0,0,0,0,0,-0.1009,-0.1033,-0.108,-0.1109,-0.1123,-0.1158,-0.1174,-0.1205,-0.1243,-0.1267,-0.1313,-0.1358,-0.1393,-0.1425,-0.1454,-0.15,-0.1484,-0.1528,-0.1535,-0.1541,-0.154,-0.1564,-0.1572,-0.1485,-0.1485,-0.1485,0,0,-0.1011,-0.1036,-0.1055,-0.1105,-0.1128,-0.1157,-0.1174,-0.1205,-0.1245,-0.1268,-0.1345,-0.1381,-0.1411,-0.1469,-0.15,-0.1489,-0.1553,-0.1548,-0.1552,-0.1547,-0.157,-0.1578,-0.1585,-0.1488,-0.1488,-0.1487,0,0,-0.0997,-0.1047,-0.1055,-0.109,-0.1134,-0.1162,-0.1183,-0.1235,-0.1274,-0.1342,-0.1374,-0.1438,-0.1497,-0.1531,-0.1549,-0.1613,-0.1587,-0.1632,-0.1663,-0.1687,-0.1693,-0.1699,-0.166,-0.1662,-0.164,-0.1641,-0.1641,0,-0.1002,-0.1022,-0.1062,-0.1079,-0.1111,-0.1172,-0.1197,-0.1238,-0.1319,-0.1351,-0.1378,-0.1492,-0.152,-0.1585,-0.1616,-0.1627,-0.1618,-0.1622,-0.1693,-0.1699,-0.1704,-0.1662,-0.1664,-0.1643,-0.1642,-0.1642,-0.1642,0,-0.0999,-0.1021,-0.1024,-0.1078,-0.1123,-0.1149,-0.1221,-0.1283,-0.1342,-0.1384,-0.148,-0.154,-0.1609,-0.1634,-0.1642,-0.1707,-0.1678,-0.1691,-0.1661,-0.1714,-0.1667,-0.1668,-0.1646,-0.1645,-0.1644,-0.1644,0,0,-0.0977,-0.1016,-0.1016,-0.1039,-0.1125,-0.1157,-0.1233,-0.1306,-0.1354,-0.1451,-0.1518,-0.1602,-0.1648,-0.1674,-0.1715,-0.1747,-0.1765,-0.1741,-0.1742,-0.1683,-0.1776,-0.1621,-0.1606,-0.1797,-0.1799,-0.18,-0.1716,0,-0.0961,-0.0981,-0.1014,-0.1056,-0.1078,-0.1164,-0.1229,-0.1313,-0.139,-0.1475,-0.1552,-0.1628,-0.1659,-0.1708,-0.1749,-0.177,-0.1776,-0.1783,-0.1751,-0.1748,-0.159,-0.1606,-0.1804,-0.1717,-0.1717,-0.1717,-0.1717,0,-0.0945,-0.0956,-0.099,-0.1046,-0.1065,-0.1124,-0.1244,-0.1306,-0.1424,-0.1483,-0.1584,-0.1642,-0.1728,-0.1745,-0.1797,-0.1804,-0.1788,-0.1792,-0.1789,-0.1634,-0.1596,-0.1664,-0.1719,-0.1719,-0.1718,-0.1718,-0.1718,0,-0.0902,-0.0938,-0.0965,-0.0991,-0.1074,-0.1128,-0.1199,-0.1321,-0.1353,-0.1506,-0.1544,-0.1662,-0.1717,-0.1756,-0.1767,-0.179,-0.1785,-0.1811,-0.1645,-0.1631,-0.1781,-0.1776,-0.1819,-0.1819,-0.1819,-0.1819,-0.182,0,-0.086,-0.0869,-0.0957,-0.0964,-0.1021,-0.1112,-0.1187,-0.1273,-0.1367,-0.1382,-0.1552,-0.1576,-0.1726,-0.1742,-0.1757,-0.1683,-0.1771,-0.1632,-0.1606,-0.1792,-0.179,-0.1778,-0.1775,-0.1816,-0.1817,-0.1817,-0.1818,0,-0.0784,-0.0835,-0.0866,-0.0959,-0.0996,-0.1055,-0.1151,-0.118,-0.1302,-0.1335,-0.1375,-0.1501,-0.1523,-0.1607,-0.1645,-0.1628,-0.16,-0.1543,-0.1687,-0.1673,-0.1428,-0.1428,-0.1353,-0.1347,-0.1342,-0.1338,-0.1334,0,-0.0741,-0.0756,-0.0854,-0.0876,-0.0918,-0.1007,-0.1043,-0.1152,-0.1167,-0.1247,-0.1233,-0.1293,-0.1364,-0.1304,-0.1411,-0.1411,-0.1407,-0.1391,-0.146,-0.1401,-0.1384,-0.1392,-0.1398,-0.1326,-0.1325,-0.1324,-0.1322,0,-0.0664,-0.0721,-0.0745,-0.0797,-0.0846,-0.0868,-0.0933,-0.0925,-0.1013,-0.1099,-0.1067,-0.1095,-0.1105,-0.1175,-0.1184,-0.1191,-0.1421,-0.1338,-0.135,-0.1415,-0.1368,-0.1358,-0.137,-0.1305,-0.1307,-0.1309,-0.131,0,-0.0626,-0.0636,-0.0689,-0.0725,-0.075,-0.073,-0.0787,-0.0791,-0.0814,-0.0901,-0.0861,-0.0952,-0.1036,-0.105,-0.1047,-0.1057,-0.1063,-0.1078,-0.1104,-0.1124,-0.1099,-0.1008,-0.0795,0,0,0,0,0,-0.059,-0.0586,-0.0605,-0.063,-0.0629,-0.0645,-0.069,-0.0742,-0.0819,-0.0746,-0.0801,-0.0797,-0.0816,-0.0876,-0.0843,-0.0957,-0.1077,-0.0917,-0.111,-0.1206,-0.1227,-0.1225,0,0,0,0,0,0,-0.0569,-0.0582,-0.0585,-0.053,-0.0507,-0.0498,-0.0525,-0.0576,-0.0567,-0.0649,-0.0671,-0.0729,-0.0776,-0.08,-0.0814,-0.0829,-0.0934,-0.0965,-0.0962,-0.1195,-0.1213,-0.123,-0.1235,0,0,0,0,0]},{"header":{"parameterUnit":"m.s-1","parameterCategory":2,"la1":30.2991,"la2":30.254,"lo1":-89.0895,"lo2":-89.0444,"dx":0.0017,"dy":0.0017,"nx":28,"ny":28,"refTime":"2023-01-30T15:00:00:Z","depth":"4","parameterNumber":3,"parameterNumberName":"V-component_of_CURRENTS"},"data":[0,0,0,0,0,0,0,0,0,0,0,0,0,0,0,0,0,0,0,0,0,0,0,0,0,0,0,0,0,0,0,0,0,0,0,0,0,0,0,0,0,0,0,0,0,0,0,0,0,0,0,0,0,0,0,0,0,0,-0.0252,-0.0251,0,-0.0261,-0.0262,-0.0262,-0.0241,-0.024,-0.0238,-0.0237,-0.0164,-0.0164,-0.0163,0,0,0,0,0,0,0,0,0,0,0,0,0,-0.0246,-0.0247,-0.0252,-0.0251,-0.0251,-0.0261,-0.0262,-0.0263,-0.0241,-0.0239,-0.0238,-0.0236,-0.0165,-0.0164,-0.0163,0,0,0,0,0,0,0,0,0,0,0,0,0,-0.026,-0.0247,-0.0252,-0.0235,-0.0232,-0.026,-0.0262,-0.0263,-0.0242,-0.0239,-0.0237,-0.0235,-0.0165,-0.0164,-0.0163,-0.0203,0,0,-0.0161,-0.016,0,0,0,0,0,0,0,0,-0.0259,-0.0261,-0.0238,-0.0236,-0.0233,-0.024,-0.0233,-0.0236,-0.0242,-0.0248,-0.0237,-0.0234,-0.0178,-0.0176,-0.0196,-0.02,-0.0197,-0.0161,-0.016,-0.016,-0.016,0,0,0,0,0,0,0,-0.0258,-0.0261,-0.0265,-0.0237,-0.0234,-0.0236,-0.0236,-0.0234,-0.0231,-0.0247,-0.0243,-0.0231,-0.0177,-0.0197,-0.0194,-0.0196,-0.0161,-0.016,-0.0159,-0.0159,-0.0179,-0.018,0,0,0,0,0,0,-0.024,-0.026,-0.0264,-0.0264,-0.0231,-0.0237,-0.0237,-0.0247,-0.0232,-0.0226,-0.0233,-0.023,-0.02,-0.0195,-0.0191,-0.0199,-0.016,-0.0159,-0.0159,-0.0178,-0.018,-0.0181,0,0,0,0,0,0,-0.0241,-0.0242,-0.0264,-0.0253,-0.0255,-0.0238,-0.025,-0.0248,-0.0259,-0.0221,-0.0214,-0.0242,-0.0198,-0.0192,-0.0191,-0.0196,-0.0159,-0.0158,-0.0177,-0.0179,-0.018,-0.0237,0,0,0,0,0,0,-0.0241,-0.0243,-0.0252,-0.0253,-0.0254,-0.0282,-0.0251,-0.025,-0.0251,-0.0247,-0.0227,-0.0219,-0.0196,-0.0193,-0.0191,-0.0195,-0.0157,-0.0176,-0.0178,-0.018,-0.0234,-0.0241,-0.0246,0,0,0,0,0,-0.0241,-0.0265,-0.0253,-0.0253,-0.0266,-0.0283,-0.0286,-0.0271,-0.0254,-0.0272,-0.0254,-0.0219,-0.0202,-0.0194,-0.0191,-0.0194,-0.0175,-0.0177,-0.0179,-0.0232,-0.024,-0.0246,0,0,0,0,0,0,-0.0272,-0.0264,-0.0251,-0.0272,-0.0273,-0.0275,-0.0289,-0.0278,-0.0285,-0.0278,-0.0242,-0.0234,-0.0234,-0.0214,-0.0205,-0.0206,-0.0179,-0.0181,-0.022,-0.0227,-0.0233,-0.0224,-0.0157,0,0,0,0,0,-0.0281,-0.0296,-0.0285,-0.0304,-0.0305,-0.03,-0.0305,-0.0297,-0.0294,-0.0296,-0.0283,-0.0264,-0.0248,-0.0235,-0.0229,-0.0236,-0.0174,-0.0234,-0.024,-0.0245,-0.0237,-0.0146,-0.0142,-0.0188,-0.0188,-0.0188,0,0,-0.0297,-0.0294,-0.0302,-0.031,-0.0314,-0.0332,-0.0301,-0.0316,-0.0333,-0.0286,-0.0317,-0.0292,-0.0257,-0.0264,-0.026,-0.0241,-0.0203,-0.0248,-0.0253,-0.0241,-0.0148,-0.0142,-0.0138,-0.019,-0.0189,-0.0189,0,0,-0.034,-0.0337,-0.0363,-0.0365,-0.0362,-0.0363,-0.0365,-0.0374,-0.0379,-0.0407,-0.0364,-0.0342,-0.0348,-0.0309,-0.0289,-0.0326,-0.0244,-0.0324,-0.0339,-0.0251,-0.0246,-0.024,-0.0164,-0.0151,-0.0319,-0.0319,-0.0319,0,-0.0353,-0.0381,-0.0374,-0.0395,-0.0395,-0.0377,-0.0402,-0.0416,-0.0426,-0.0422,-0.0423,-0.0393,-0.0367,-0.0328,-0.0338,-0.0337,-0.0272,-0.0313,-0.0256,-0.0249,-0.0242,-0.0165,-0.015,-0.0322,-0.0322,-0.0322,-0.0321,0,-0.0406,-0.0427,-0.0444,-0.046,-0.0472,-0.0489,-0.049,-0.051,-0.0513,-0.0505,-0.0493,-0.0463,-0.0429,-0.042,-0.0392,-0.033,-0.0296,-0.0277,-0.0232,-0.024,-0.0159,-0.0142,-0.0327,-0.0326,-0.0325,-0.0324,0,0,-0.0426,-0.047,-0.0473,-0.0487,-0.05,-0.0514,-0.055,-0.0557,-0.0562,-0.0567,-0.0562,-0.0528,-0.0487,-0.0461,-0.0412,-0.0336,-0.0242,-0.0286,-0.028,-0.0201,-0.0041,-0.0042,-0.0023,-0.02,-0.0197,-0.0195,-0.0007,0,-0.0459,-0.051,-0.0525,-0.057,-0.059,-0.0588,-0.0619,-0.0622,-0.0626,-0.0625,-0.0566,-0.0551,-0.0508,-0.0487,-0.0404,-0.0287,-0.0198,-0.0294,-0.0053,-0.0046,-0.0037,-0.0004,-0.0187,0.0006,0.001,0.0013,0.0015,0,-0.0494,-0.0519,-0.0572,-0.061,-0.0619,-0.0651,-0.0671,-0.0696,-0.068,-0.0679,-0.0635,-0.0593,-0.0495,-0.0467,-0.0245,-0.0304,-0.0173,-0.0078,-0.0068,-0.0033,-0.0015,0.0019,0.0047,0.0044,0.0042,0.004,0.0038,0,-0.0492,-0.0549,-0.0589,-0.0599,-0.0643,-0.0672,-0.0701,-0.0709,-0.0724,-0.0705,-0.0704,-0.059,-0.0538,-0.0363,-0.0187,-0.0198,0.0062,0.007,0.0198,0.02,0.017,0.0162,0.0249,0.0248,0.0248,0.0248,0.0247,0,-0.0504,-0.0538,-0.0595,-0.061,-0.0662,-0.0689,-0.0733,-0.0753,-0.076,-0.0755,-0.0722,-0.0685,-0.0504,-0.0352,-0.0178,0.0059,0.0079,0.0213,0.0257,0.0137,0.0124,0.0182,0.0172,0.0255,0.0253,0.0252,0.025,0,-0.05,-0.0536,-0.0585,-0.064,-0.0666,-0.0705,-0.0771,-0.0789,-0.0807,-0.0803,-0.0797,-0.0723,-0.0529,-0.0342,-0.0058,0.0065,0.0288,0.0372,0.0226,0.0255,0.0368,0.0352,0.0542,0.0544,0.0545,0.0546,0.0547,0,-0.0504,-0.0526,-0.06,-0.0638,-0.0673,-0.0733,-0.0769,-0.0809,-0.0818,-0.0809,-0.079,-0.0658,-0.0572,-0.0185,0.0004,0.033,0.0372,0.0476,0.0429,0.0379,0.0403,0.0385,0.0367,0.055,0.055,0.055,0.0551,0,-0.0502,-0.0532,-0.057,-0.0639,-0.0695,-0.0747,-0.0799,-0.0808,-0.0826,-0.0839,-0.0747,-0.0601,-0.0395,-0.0151,0.0086,0.0319,0.0395,0.0492,0.0491,0.0448,0.0391,0.0409,0.039,0.0556,0.0555,0.0555,0.0554,0,-0.0499,-0.0529,-0.0578,-0.0637,-0.0701,-0.0743,-0.0779,-0.077,-0.0777,-0.0758,-0.0711,-0.0544,-0.0443,-0.0153,0.0075,0.0284,0.0339,0.0398,0.0402,0.0399,0.0282,0.0183,0.0342,0,0,0,0,0,-0.0486,-0.0518,-0.0573,-0.0642,-0.0699,-0.0735,-0.0781,-0.0801,-0.0809,-0.0729,-0.072,-0.0525,-0.0236,-0.0134,0.0087,0.0103,0.0366,0.0364,0.0435,0.0584,0.0578,0.0462,0,0,0,0,0,0,-0.0485,-0.0532,-0.0561,-0.062,-0.0662,-0.0724,-0.0752,-0.0766,-0.0713,-0.07,-0.054,-0.0476,-0.0187,-0.0348,0.0091,0.0145,0.0219,0.0494,0.0498,0.0587,0.0582,0.0577,0.0456,0,0,0,0,0]}]]